Location: Kalberh�ni
(46.4610°N, 7.2453°E)
Time: 06:03:14
(UTC+00:00)

Cosmos 1802 Rocket - Pass Details

Date: 24 October 2021
Orbit: 955 x 1010 km, 82.9° (Epoch: 05 December)

Event Time Altitude Azimuth Distance (km) Brightness Sun altitude
Exits shadow 20:24:34 29° 322° (NW) 1,687 5.6 -40.3°
Drops below altitude 10° 20:28:18 10° 353° (N) 2,704 6.6 -40.9°
Sets 20:31:04 0° 3° (N) 3,660 7.3 -41.3°
